Terug naar catalogus

STARLINK-33893

ActiefCommunicatieVLEO
NORAD 64253·PAYLOAD·🇺🇸 United States

Gelanceerd Jun 3, 2025 vanaf Cape Canaveral Space Force Station

Loading…

Volgende Passages (komende 24 uur)

TLE

VersSource: CelesTrak SupGP

Epoch: Sep 14, 2026, 22:11 UTC

1 64253C 25119W   26257.92479167 -.00016029  00000+0 -58055-3 0  2577
2 64253  43.0035 318.5472 0001698 266.9538 252.4076 15.27586804    13

Volg STARLINK-33893 in realtime met AllMySat

Download on the App Store